Regional Weather Roundup
Issued by NWS Sterling, VA

Home | Current Version | Previous Version | Graphics & Text | Print | Product List | Glossary On
Versions: 1 2 3 4 5 6 7 8 9 10 11 12 13 14 15 16 17 18 19 20 21 22 23 24 25 26 27 28 29 30 31 32 33 34 35 36 37 38 39 40 41 42 43 44 45 46 47 48 49 50
000
ASUS41 KLWX 012310
RWRLWX

REGIONAL WEATHER ROUNDUP
NATIONAL WEATHER SERVICE BALTIMORE MD/WASHINGTON DC
700 PM EDT FRI AUG 01 2014

Note: "FAIR" indicates few or no clouds below 12,000 feet
with no significant weather and/or obstructions to visibility.
 TC=TEMPERATURE CELSIUS

 * =Non NWS site. Station does not report precipitation (e.g. rain,
    snow, etc.), thunder, or fog.

DCZ001-MDZ009-015-VAZ040>042-051-053>054-020000-
WASHINGTON METRO
  /KDAA//-FT BELVOIR

CITY           SKY/WX    TMP DP  RH WIND       PRES   REMARKS
WASHINGTON NAT CLOUDY    77  61  57 S3        30.16S
DULLES         CLOUDY    74  62  66 S3        30.16S
ANDREWS AFB    CLOUDY    73  67  81 E2        30.16S
QUANTICO       CLOUDY    74  65  73 E5        30.16S
COLLEGE PARK*  CLOUDY    77  63  61 CALM      30.16S
MANASSAS*      CLOUDY    73  66  78 SW7       30.16S
GAITHERSBURG*  CLOUDY    73  63  68 CALM      30.20S

$$

MDZ006>007-011-014-020000-
BALTIMORE METRO

CITY           SKY/WX    TMP DP  RH WIND       PRES   REMARKS
BWI AIRPORT    CLOUDY    75  65  70 S5        30.15F
MD SCIENCE CTR   N/A     79  62  56 MISG      30.15F
MARTIN STATE   CLOUDY    79  70  73 E12       30.18S
ANNAPOLIS      CLOUDY    76  65  68 SE9       30.15F
FORT MEADE*    CLOUDY    72  63  73 S3        30.18S

$$

MDZ012-015-019>023-020000-
MARYLAND EASTERN SHORE

CITY           SKY/WX    TMP DP  RH WIND       PRES   REMARKS
OCEAN CITY     LGT RAIN  74  67  78 E7        30.15F
SALISBURY      CLOUDY    75  70  84 NE7       30.14F
BAY BRIDGE AP*   N/A     73  64  73 SE7       30.15F
CAMBRIDGE*     CLOUDY    72  66  83 NE3       30.15S
EASTON*        CLOUDY    75  73  94 CALM      30.29R

$$

MDZ017>025-020000-
SOUTHERN MARYLAND

CITY           SKY/WX    TMP DP  RH WIND       PRES   REMARKS
PATUXENT RIVER LGT RAIN  71  64  78 E5        30.15S
ST INIGOES     LGT RAIN  70  66  87 CALM      30.15R FOG
LEONARDTOWN*   CLOUDY    68  64  88 CALM      30.17S

$$

MDZ003>005-020000-
NORTH CENTRAL MARYLAND

CITY           SKY/WX    TMP DP  RH WIND       PRES   REMARKS
FREDERICK*     CLOUDY    75  68  78 CALM      30.18F
HAGERSTOWN APT PTSUNNY   75  61  61 S8        30.16S
WESTMINSTER*   CLOUDY    75  64  69 S5        30.18S

$$

MDZ501>502-020000-
WESTERN MARYLAND

CITY           SKY/WX    TMP DP  RH WIND       PRES   REMARKS
OAKLAND*       PTSUNNY   66  61  82 SE9       30.20S
CUMBERLAND*    PTSUNNY   77  63  61 CALM      30.17F

$$

VAZ025>031-020000-
SHENANDOAH VALLEY

CITY           SKY/WX    TMP DP  RH WIND       PRES   REMARKS
WINCHESTER*    NOT AVBL
STAUNTON*      NOT AVBL

$$

WVZ021-048>050-054>055-020000-
EASTERN WEST VIRGINIA PANHANDLE

CITY           SKY/WX    TMP DP  RH WIND       PRES   REMARKS
MARTINSBURG    CLOUDY    76  60  57 S7        30.16S
PETERSBURG*    NOT AVBL

$$

VAZ036>039-050-020000-
CENTRAL FOOTHILLS

CITY           SKY/WX    TMP DP  RH WIND       PRES   REMARKS
CHARLOTTESVILL CLOUDY    73  63  70 E5        30.16S
ORANGE*        NOT AVBL

$$

VAZ055>057-020000-
NORTH AND CENTRAL PIEDMONT

CITY           SKY/WX    TMP DP  RH WIND       PRES   REMARKS
FREDERICKSBRG* NOT AVBL
STAFFORD*      NOT AVBL

$$

NCZ024-NYZ072-PAZ021-071-VAZ022-071-020000-
OTHER REGIONAL OBSERVATIONS

CITY           SKY/WX    TMP DP  RH WIND       PRES   REMARKS
NEW YORK CITY  CLOUDY    76  65  68 VRB7      30.21F
PHILADELPHIA   CLOUDY    74  68  81 E3        30.19S
PITTSBURGH     MOSUNNY   78  62  57 S9        30.09S
ROANOKE        LGT RAIN  67  63  87 N6        30.17F
RICHMOND       LGT RAIN  72  68  87 NE5       30.14F FOG
RALEIGH        LGT RAIN  65  62  90 NE8       30.10S FOG

$$

ANZ530>537-020000-
MARINE OBSERVATIONS

STATION/POSITION TIME  TEMP    WIND        PRES
                       AIR SEA DIR/SP/G
                 (UTC) (F)     (DEG/KT/KT) (MB)
THOMAS PT LIGHT  2300   75 78  130/  9/  9 1021.4F
BALT KEY BRIDGE  2300          150/ 11/ 13 1020.5F
COVE POINT       2300   73     130/ 12/ 12 1020.8R
LEWISETTA        2300   75 78   90/  9/ 10 1020.4F
SOLOMONS ISLAND  2300      79                N/A
PINEY POINT      2300           50/  4/  4   N/A

$$




USA.gov is the U.S. government's official web portal to all federal, state and local government web resources and services.